Date String (YYYY-MM-DD hh:mm:ss) UTC,Instrument flags,Ambient pressure (hPa),Sample flow (lpm),Bypass flow (lpm),Sample temperature (°C),Ambient temperature (°C),ASC tube jacket temperature (°C),LED temperature (°C),Box temperature (°C),Sample RH (%),Span deviation,Mass concentration (μg/m³),Mass concentration (μg/m³),Mass concentration (μg/m³)
DateTimeUTC,F1_M11,P_M11,Q1_M11,Q2_M11,T1_M11,T2_M11,T3_M11,T4_M11,T5_M11,U1_M11,ZSPAN_M11,X0_M11,X2_M11,X1_M11
2022-04-06 02:00:00,,0819.8,4.99,0.00,23.5,22.6,00.0,32.5,25.3,06.3,0000.0,0015.61,0003.45,0000.98
2022-04-06 02:01:00,,0819.9,5.00,0.00,23.5,22.6,00.0,32.5,25.3,06.2,0000.0,0014.59,0003.43,0000.96
2022-04-06 02:02:00,,0819.9,5.00,0.00,23.5,22.6,00.0,32.5,25.3,06.1,0000.0,0013.50,0003.37,0000.95
2022-04-06 02:03:00,,0820.0,5.00,0.00,23.5,22.6,00.0,32.5,25.3,06.2,0000.0,0015.23,0003.43,0000.95
2022-04-06 02:04:00,,0820.1,5.01,0.00,23.5,22.6,00.0,32.5,25.2,06.1,0000.0,0014.97,0003.40,0000.94
2022-04-06 02:05:00,,0820.2,5.00,0.00,23.5,22.6,00.0,32.5,25.2,06.0,0000.0,0015.24,0003.44,0000.95
2022-04-06 02:06:00,,0820.2,5.00,0.00,23.5,22.6,00.0,32.5,25.2,06.1,0000.0,0015.10,0003.46,0000.95
2022-04-06 02:07:00,,0820.2,5.00,0.00,23.5,22.6,00.0,32.5,25.2,06.1,0000.0,0016.47,0003.46,0000.97
2022-04-06 02:08:00,,0820.2,5.00,0.00,23.5,22.5,00.0,32.5,25.1,06.0,0000.0,0017.40,0003.48,0000.97
2022-04-06 02:09:00,,0820.3,5.00,0.00,23.5,22.5,00.0,32.5,25.2,06.0,0000.0,0016.68,0003.44,0000.96
2022-04-06 02:10:00,,0820.3,5.00,0.00,23.5,22.5,00.0,32.5,25.2,06.0,0000.0,0016.39,0003.44,0000.96
2022-04-06 02:11:00,,0820.4,5.00,0.00,23.5,22.5,00.0,32.5,25.2,06.0,0000.0,0015.81,0003.45,0000.96
2022-04-06 02:12:00,,0820.5,5.00,0.00,23.5,22.5,00.0,32.5,25.2,05.8,0000.0,0015.29,0003.45,0000.96
2022-04-06 02:13:00,,0820.6,5.01,0.00,23.5,22.5,00.0,32.5,25.1,05.8,0000.0,0016.58,0003.48,0000.98
2022-04-06 02:14:00,,0820.3,5.01,0.00,23.5,22.5,00.0,32.5,25.2,05.8,0000.0,0015.26,0003.45,0000.97
2022-04-06 02:15:00,,0820.3,5.00,0.00,23.5,22.4,00.0,32.5,25.1,05.7,0000.0,0015.60,0003.48,0000.98
2022-04-06 02:16:00,,0820.3,5.00,0.00,23.4,22.4,00.0,32.5,25.1,05.7,0000.0,0015.12,0003.42,0000.98
2022-04-06 02:17:00,,0820.5,5.00,0.00,23.4,22.4,00.0,32.5,25.0,05.7,0000.0,0015.04,0003.39,0000.98
2022-04-06 02:18:00,,0820.5,5.00,0.00,23.4,22.3,00.0,32.5,25.0,05.7,0000.0,0014.39,0003.34,0000.99
2022-04-06 02:19:00,,0820.6,5.00,0.00,23.4,22.3,00.0,32.5,25.0,05.7,0000.0,0013.68,0003.28,0000.99
2022-04-06 02:20:00,,0820.6,4.99,0.00,23.4,22.3,00.0,32.4,25.0,05.6,0000.0,0013.44,0003.30,0001.00
2022-04-06 02:21:00,,0820.6,4.99,0.00,23.4,22.3,00.0,32.4,25.0,05.6,0000.0,0014.10,0003.33,0001.01
2022-04-06 02:22:00,,0820.7,5.01,0.00,23.4,22.3,00.0,32.4,25.0,05.7,0000.0,0015.76,0003.29,0001.03
2022-04-06 02:23:00,,0820.7,5.00,0.00,23.4,22.2,00.0,32.4,25.0,05.7,0000.0,0015.79,0003.26,0001.04
2022-04-06 02:24:00,,0820.8,4.99,0.00,23.4,22.2,00.0,32.4,25.0,05.8,0000.0,0014.80,0003.25,0001.04
2022-04-06 02:25:00,,0820.8,4.99,0.00,23.4,22.2,00.0,32.4,25.0,05.8,0000.0,0015.10,0003.25,0001.06
2022-04-06 02:26:00,,0820.8,5.01,0.00,23.4,22.3,00.0,32.4,25.0,05.8,0000.0,0015.26,0003.20,0001.06
2022-04-06 02:27:00,,0820.9,5.00,0.00,23.3,22.3,00.0,32.4,25.0,05.9,0000.0,0016.23,0003.22,0001.06
2022-04-06 02:28:00,,0820.8,5.00,0.00,23.3,22.2,00.0,32.4,24.9,05.9,0000.0,0016.63,0003.24,0001.06
2022-04-06 02:29:00,,0820.8,4.98,0.00,23.3,22.2,00.0,32.4,24.9,05.7,0000.0,0016.51,0003.24,0001.07
2022-04-06 02:30:00,,0820.9,5.00,0.00,23.3,22.1,00.0,32.4,24.9,05.7,0000.0,0016.82,0003.26,0001.07
2022-04-06 02:31:00,,0820.8,5.00,0.00,23.3,22.1,00.0,32.4,24.9,05.8,0000.0,0017.83,0003.29,0001.07
2022-04-06 02:32:00,,0820.9,5.00,0.00,23.3,22.0,00.0,32.4,24.9,05.8,0000.0,0018.00,0003.25,0001.06
2022-04-06 02:33:00,,0820.9,4.99,0.00,23.3,22.0,00.0,32.4,24.9,05.8,0000.0,0017.54,0003.24,0001.05
2022-04-06 02:34:00,,0820.9,5.00,0.00,23.3,22.0,00.0,32.3,24.9,05.7,0000.0,0017.22,0003.21,0001.03
2022-04-06 02:35:00,,0821.0,5.01,0.00,23.3,22.0,00.0,32.3,24.9,05.7,0000.0,0018.63,0003.18,0001.02
2022-04-06 02:36:00,,0821.0,4.99,0.00,23.3,22.0,00.0,32.3,24.8,05.7,0000.0,0017.68,0003.14,0001.01
2022-04-06 02:37:00,,0821.0,4.99,0.00,23.2,21.9,00.0,32.3,24.8,05.8,0000.0,0017.27,0003.15,0001.01
2022-04-06 02:38:00,,0821.0,5.01,0.00,23.2,21.9,00.0,32.3,24.9,05.8,0000.0,0016.18,0003.09,0000.99
2022-04-06 02:39:00,,0821.0,5.01,0.00,23.2,21.9,00.0,32.3,24.8,05.8,0000.0,0016.39,0003.00,0000.99
2022-04-06 02:40:00,,0821.0,5.00,0.00,23.2,22.0,00.0,32.3,24.9,05.7,0000.0,0016.68,0002.95,0000.97
2022-04-06 02:41:00,,0821.1,4.99,0.00,23.2,22.0,00.0,32.3,24.9,05.9,0000.0,0016.58,0002.95,0000.96
2022-04-06 02:42:00,,0821.2,4.99,0.00,23.2,22.0,00.0,32.3,24.8,05.8,0000.0,0015.92,0002.89,0000.95
2022-04-06 02:43:00,,0821.2,5.00,0.00,23.2,22.0,00.0,32.3,24.8,05.8,0000.0,0015.82,0002.86,0000.94
2022-04-06 02:44:00,,0821.3,5.00,0.00,23.2,22.0,00.0,32.3,24.8,05.8,0000.0,0015.15,0002.93,0000.94
2022-04-06 02:45:00,,0821.3,5.01,0.00,23.2,22.0,00.0,32.3,24.8,05.8,0000.0,0016.59,0003.03,0000.95
2022-04-06 02:46:00,,0821.4,5.01,0.00,23.2,22.0,00.0,32.3,24.9,05.9,0000.0,0017.25,0003.13,0000.97
2022-04-06 02:47:00,,0821.4,5.00,0.00,23.2,22.0,00.0,32.3,24.9,06.0,0000.0,0018.17,0003.18,0000.98
2022-04-06 02:48:00,,0821.4,5.00,0.00,23.2,22.0,00.0,32.3,24.9,06.0,0000.0,0018.63,0003.19,0000.98
2022-04-06 02:49:00,,0821.3,4.99,0.00,23.2,22.1,00.0,32.3,24.9,06.0,0000.0,0018.40,0003.25,0000.98
2022-04-06 02:50:00,,0821.4,5.00,0.00,23.2,22.1,00.0,32.2,24.9,06.0,0000.0,0017.54,0003.30,0000.99
2022-04-06 02:51:00,,0821.4,5.01,0.00,23.2,22.1,00.0,32.2,25.0,06.2,0000.0,0017.27,0003.38,0001.00
2022-04-06 02:52:00,,0821.5,5.00,0.00,23.2,22.2,00.0,32.3,25.0,06.4,0000.0,0016.15,0003.31,0001.00
2022-04-06 02:53:00,,0821.5,5.00,0.00,23.2,22.2,00.0,32.3,25.0,06.7,0000.0,0016.35,0003.27,0001.01
2022-04-06 02:54:00,,0821.5,4.99,0.00,23.3,22.2,00.0,32.3,25.0,06.9,0000.0,0015.95,0003.29,0001.02
2022-04-06 02:55:00,,0821.5,5.00,0.00,23.3,22.3,00.0,32.3,25.0,07.0,0000.0,0015.40,0003.25,0001.01
2022-04-06 02:56:00,,0821.4,5.00,0.00,23.3,22.3,00.0,32.3,25.1,07.0,0000.0,0015.60,0003.22,0001.01
2022-04-06 02:57:00,,0821.4,5.00,0.00,23.3,22.3,00.0,32.3,25.0,06.9,0000.0,0013.00,0003.19,0001.01
2022-04-06 02:58:00,,0821.4,5.00,0.00,23.2,22.3,00.0,32.3,25.0,06.9,0000.0,0012.45,0003.15,0001.00
2022-04-06 02:59:00,,0821.4,4.99,0.00,23.2,22.3,00.0,32.3,25.0,06.9,0000.0,0012.28,0003.14,0001.00
